AirNav   BOSE A20 Aviation Headset
 
 1553 users online  

WS06 Springstead Airport
Park Falls, Wisconsin, USA

GOING TO PARK FALLS?


FAA INFORMATION EFFECTIVE 24 MAY 2018

Location

FAA Identifier: WS06
Lat/Long: 45-59-15.8140N / 090-09-48.5820W
45-59.263567N / 090-09.809700W
45.9877261 / -90.1634950
(estimated)
Elevation: 1600 ft. / 488 m (estimated)
Variation: 00E (1985)
From city: 14 miles NE of PARK FALLS, WI
Time zone: UTC -5 (UTC -6 during Standard Time)
Zip code: 54552

Airport Operations

Airport use: Private use. Permission required prior to landing
Activation date: 10/1982
Control tower: no
ARTCC: MINNEAPOLIS CENTER
FSS: GREEN BAY FLIGHT SERVICE STATION
Attendance: UNATNDD
Segmented circle: no

Airport Communications

WX AWOS-3PT at D25 (14 nm NE): 118.375 (715-543-2004)
WX AWOS-3 at ARV (18 nm E): 121.125 (715-356-2417)
WX AWOS-3 at PBH (19 nm SW): 125.875 (715-339-4520)

Nearby radio navigation aids

VOR radial/distance  VOR name  Freq  Var
IWDr182/32.7IRONWOOD VORTAC108.8001E
RHIr304/36.4RHINELANDER VOR/DME109.2002E

 
NDB name  Hdg/Dist  Freq  Var  ID
PARK FALLS080/11.237101WPKF .--. -.- ..-.
ARBOR VITAE283/18.522102WARV .- .-. ...-

Airport Services

Runway Information

Runway 1/19

Dimensions: 2000 x 60 ft. / 610 x 18 m
Surface: turf
RUNWAY 1  RUNWAY 19
Traffic pattern: leftleft

Airport Ownership and Management from official FAA records

Ownership: Privately-owned
Owner: LUGINO D. DALESSANDRO
4671W MARTY LAKE RD
PARK FALLS, WI 54552
Phone 715-583-4533
Manager: LUGINO D. DALESSANDRO
4671W MARTY LAKE RD
PARK FALLS, WI 54552
Phone 715-583-4533

Airport Operational Statistics

Aircraft based on the field: 3
Single engine airplanes: 1
Multi engine airplanes: 1
Helicopters: 1
    

Instrument Procedures

There are no published instrument procedures at WS06.

Some nearby airports with instrument procedures:

KPKF - Park Falls Municipal Airport (11 nm W)
D25 - Manitowish Waters Airport (14 nm NE)
KARV - Lakeland Airport/Noble F. Lee Memorial Field (18 nm E)
KPBH - Price County Airport (19 nm SW)
KIWD - Gogebic-Iron County Airport (32 nm N)
 
Loc | Ops | Rwys | IFR | FBO | Links
Com | Nav | Svcs | Stats | Notes

AirNav Hotels Sweepstakes
 
Area around WS06 (Springstead Airport)
 
Road maps at: MapQuest Bing Google
 
Aerial photo
No photo
 
Sectional chart

 
Airport distance calculator
Flying to Springstead Airport? Find the distance to fly.

From to WS06

Sunrise and sunset
Times for 25-May-2018
 Local
(UTC-5)
 Zulu
(UTC)
Morning civil twilight04:4309:43
Sunrise05:1910:19
Sunset20:3601:36
Evening civil twilight21:1202:12

Current date and time
Zulu (UTC)  25-May-2018 14:28:18
Local (UTC-5)  25-May-2018 09:28:18
 
METAR
KD25 
14nm NE 
251415Z AUTO 00000KT 10SM -RA SCT075 OVC090 18/18 A2983 RMK AO2 P0001 T01800180
KARV 
19nm E 
251415Z AUTO 21005KT 10SM -RA SCT034 BKN070 OVC095 20/17 A2983 RMK AO2 T01950172
KPBH 
20nm SW 
251415Z AUTO 21006KT 10SM CLR 19/18 A2983 RMK AO2 T01860181
TAF
KIWD 
32nm N 
251134Z 2512/2612 22009KT P6SM -SHRA BKN090 WS020/25040KT FM251500 23010G15KT P6SM VCSH BKN090 FM251800 23011G20KT P6SM VCTS BKN090CB FM252100 22010G18KT 6SM -TSRA BKN080CB FM252300 22007KT P6SM -SHRA VCSH BKN090 FM260100 22007KT P6SM VCSH BKN090 FM260300 20006KT P6SM SCT090
KRHI 
36nm SE 
251126Z 2512/2612 22006KT P6SM SCT050 BKN100 TEMPO 2512/2514 4SM TSRA BR SCT030CB BKN050 FM251400 22009KT P6SM SCT050 BKN100 FM251700 23011G17KT P6SM VCTS SCT040CB BKN080 FM252000 23011G17KT P6SM VCSH SCT035 OVC060 TEMPO 2520/2524 3SM +TSRA BKN025CB FM260000 23008KT P6SM VCSH SCT040 BKN080 FM260800 25004KT 5SM BR SCT009 OVC018 TEMPO 2608/2612 2SM BR BKN009
NOTAMs
Click for the latest NOTAMs
NOTAMs are issued by the DoD/FAA and will open in a separate window not controlled by AirNav.

 

 
 

Would you like to see your business listed on this page?

 If your business provides an interesting product or service to pilots, flight crews, aircraft, or users of the Springstead Airport, you should consider listing it here.  To start the listing process, click on the button below
 
Add a business
 

Other Pages about Springstead Airport

Update a link
 
Copyright © AirNav, LLC. All rights reserved. Privacy Policy  Contact